Simultaneous Nadir Overpasses (SNOs) Predictions

Prediction of SNOs between METOP-A and TERRA Satellite Orbit:

Table of predicted SNOs for the next 14.0 days since TLE Epoch: 9/21/2019
Index Date (METOP-A) Time (METOP-A) Lat,Lon (METOP-A) SZA (METOP-A ) Date (TERRA) Time (TERRA) Lat,Lon (TERRA) SZA (TERRA ) Distance(km) Time Diff (sec)
1 09/22/2019 08:18:49 81.45, 105.02 84.29 09/22/2019 08:19:17 81.45, 105.11 84.31 1.43 28
2 09/22/2019 09:09:29 -81.44, -87.28 95.66 09/22/2019 09:08:44 -81.45, -87.36 95.69 1.30 45
3 09/25/2019 03:53:13 81.45, 171.54 85.42 09/25/2019 03:53:32 81.46, 171.64 85.44 1.86 19
4 09/25/2019 04:43:53 -81.44, -20.74 94.53 09/25/2019 04:42:59 -81.45, -20.80 94.56 1.49 54
5 09/27/2019 23:27:37 81.45,-122.34 86.51 09/27/2019 23:27:47 81.44,-122.26 86.51 1.67 10
6 09/28/2019 00:18:17 -81.44, 45.39 93.44 09/28/2019 00:17:14 -81.44, 45.33 93.49 1.26 63
7 09/30/2019 18:11:30 -81.48, 133.01 92.80 09/30/2019 18:12:44 -81.28, 133.44 92.85 23.06 74
8 09/30/2019 19:02:01 81.45, -55.83 87.63 09/30/2019 19:02:02 81.44, -55.81 87.63 0.84 1
9 09/30/2019 19:52:41 -81.44, 111.91 92.32 09/30/2019 19:51:29 -81.44, 111.80 92.37 1.80 72
10 10/03/2019 13:45:45 -81.45,-156.89 91.29 10/03/2019 13:46:51 -81.44,-157.07 91.29 3.29 66




NCC Satellite Simultaneous Nadir Overpasses (SNOs) Prediction Service
